Torna al catalogo

FENGYUN 1C DEB *

LostPO
NORAD 47035·DEBRIS·🇨🇳 China

Lanciato May 10, 1999 da Taiyuan Satellite Launch Center

Loading…

Prossimi Passaggi (prossime 24 ore)

TLE

ObsoletoSource: Space-Track

Epoca: Feb 26, 2023, 12:57 UTC

1 47035U 99025FBM 23057.53963056  .00005470  00000-0  35585-2 0  9992
2 47035  98.1746 171.8086 0091524 186.9136 237.6186 14.00769958555795

Traccia FENGYUN 1C DEB * in tempo reale con AllMySat

Download on the App Store